DW3319 Weather Reports


Display with metric or nautical units.
time (UTC)temp
F
wind
direction
speed
MPH
gust
MPH
rain 1hr
in
rain 24hr
in
rain mn
in
humidity
%
barometer
mb
20260901164555 81 178 3.0 11.0 0.00 0.22 0.10 92 1014.8
20260901163058 80 350 2.0 8.0 0.00 0.22 0.10 94 1014.7
20260901161557 80 15 3.0 11.0 0.00 0.22 0.10 96 1014.9
20260901160056 79 129 2.0 10.0 0.00 0.22 0.10 97 1015.4
20260901154616 79 31 4.0 11.0 0.00 0.22 0.10 98 1015.5
20260901153103 78 325 3.0 11.0 0.00 0.22 0.10 99 1015.5
20260901151547 77 273 1.0 8.0 0.00 0.22 0.10 99 1015.4
20260901150054 77 229 2.0 11.0 0.01 0.22 0.10 99 1015.2
20260901144557 77 9 1.0 8.0 0.02 0.22 0.10 99 1015.4
20260901143050 77 67 1.0 9.0 0.05 0.22 0.10 99 1015.3
20260901141558 77 64 2.0 9.0 0.10 0.22 0.10 98 1015.5
20260901140059 77 265 2.0 5.0 0.09 0.21 0.09 98 1015.7
20260901134554 77 9 1.0 8.0 0.08 0.20 0.08 98 1015.7
20260901133051 77 36 1.0 9.0 0.04 0.16 0.04 98 1015.5
20260901131546 77 325 2.0 7.0 0.00 0.12 0.00 98 1015.3
20260901130054 77 34 1.0 5.0 0.00 0.12 0.00 98 1015.2
20260901124550 76 312 1.0 5.0 0.00 0.12 0.00 98 1015.1
20260901123052 76 56 1.0 8.0 0.00 0.12 0.00 98 1015.0
20260901121546 76 27 2.0 6.0 0.00 0.12 0.00 98 1014.8
20260901120110 76 26 1.0 7.0 0.00 0.12 0.00 99 1014.8
20260901114559 76 15 1.0 8.0 0.00 0.12 0.00 99 1014.8
20260901113056 76 344 2.0 7.0 0.00 0.12 0.00 99 1014.8
20260901111557 76 282 1.0 5.0 0.00 0.12 0.00 99 1014.6
20260901110051 76 117 2.0 7.0 0.00 0.12 0.00 99 1014.6
20260901104545 76 38 1.0 8.0 0.00 0.12 0.00 99 1014.6
20260901103100 75 316 1.0 6.0 0.00 0.12 0.00 99 1014.8
20260901101551 75 59 1.0 3.0 0.00 0.12 0.00 99 1014.7
20260901100050 75 34 1.0 3.0 0.00 0.12 0.00 99 1014.7
20260901094556 75 0 0.0 2.0 0.00 0.12 0.00 99 1014.7
20260901093053 75 51 0.0 2.0 0.00 0.12 0.00 99 1014.9
20260901091554 75 0 0.0 3.0 0.00 0.12 0.00 99 1014.9
20260901090056 75 309 1.0 5.0 0.00 0.12 0.00 99 1014.8
20260901084604 75 0 0.0 2.0 0.00 0.12 0.00 98 1014.7
20260901083056 75 26 0.0 3.0 0.00 0.12 0.00 99 1014.7
20260901081548 75 51 0.0 2.0 0.00 0.12 0.00 98 1014.8
20260901080105 75 9 0.0 2.0 0.00 0.12 0.00 98 1014.9
20260901074555 75 0 0.0 2.0 0.00 0.12 0.00 98 1015.0
20260901073047 75 309 0.0 1.0 0.00 0.12 0.00 98 1015.1
20260901071548 75 0 0.0 2.0 0.00 0.12 0.00 98 1015.2
20260901070050 75 309 0.0 2.0 0.00 0.12 0.00 98 1015.3
20260901064553 75 9 0.0 1.0 0.00 0.12 0.00 98 1015.3
20260901063056 75 0 0.0 1.0 0.00 0.12 0.00 98 1015.5
20260901061557 75 0 0.0 1.0 0.00 0.12 0.00 98 1015.5
20260901060058 75 0 0.0 1.0 0.00 0.12 0.00 97 1015.4
20260901054555 75 0 0.0 1.0 0.00 0.12 0.00 97 1015.5
20260901053058 75 0 0.0 1.0 0.00 0.12 0.00 97 1015.7
20260901051551 75 0 0.0 1.0 0.00 0.12 0.00 97 1015.7
20260901050057 75 0 0.0 2.0 0.00 0.12 0.00 97 1015.6
20260901044601 75 265 0.0 1.0 0.00 0.12 0.12 97 1015.7
20260901043048 76 0 0.0 2.0 0.00 0.12 0.12 97 1015.7
20260901041556 76 111 0.0 1.0 0.00 0.12 0.12 96 1015.8
20260901040047 76 0 0.0 2.0 0.00 0.12 0.12 97 1015.7
20260901034550 76 51 0.0 2.0 0.00 0.12 0.12 96 1015.6
20260901033100 76 9 0.0 2.0 0.00 0.12 0.12 96 1015.7
20260901031549 76 0 0.0 1.0 0.00 0.12 0.12 96 1015.5
20260901030048 77 0 0.0 2.0 0.00 0.12 0.12 96 1015.4
20260901024550 77 0 0.0 1.0 0.00 0.12 0.12 95 1015.2
20260901023047 77 0 0.0 1.0 0.00 0.12 0.12 95 1015.0
20260901021557 77 0 0.0 1.0 0.00 0.12 0.12 95 1014.9
20260901020056 78 0 0.0 1.0 0.00 0.12 0.12 94 1014.9
20260901014551 78 0 0.0 2.0 0.00 0.12 0.12 94 1014.9
20260901013043 78 0 0.0 1.0 0.00 0.12 0.12 93 1014.9
20260901011557 79 0 0.0 2.0 0.00 0.12 0.12 92 1014.8
20260901010054 80 0 0.0 1.0 0.00 0.12 0.12 91 1014.8
20260901004549 81 9 0.0 2.0 0.00 0.12 0.12 89 1014.7
20260901003054 82 0 0.0 3.0 0.00 0.12 0.12 86 1014.7
20260901001600 83 51 1.0 6.0 0.00 0.12 0.12 84 1014.7
20260831234556 84 113 0.0 3.0 0.00 0.12 0.12 91 1014.7
20260831233054 85 0 0.0 2.0 0.00 0.12 0.12 91 1014.8
20260831231542 85 0 0.0 2.0 0.00 0.12 0.12 91 1015.0
20260831230052 85 0 0.0 3.0 0.00 0.12 0.12 92 1014.8
20260831224550 84 9 1.0 4.0 0.00 0.12 0.12 93 1014.8
20260831223054 83 298 0.0 2.0 0.00 0.12 0.12 94 1014.9
20260831221547 82 309 0.0 3.0 0.12 0.12 0.12 94 1014.9
20260831220054 81 0 0.0 3.0 0.12 0.12 0.12 93 1014.9
20260831214559 81 15 1.0 3.0 0.12 0.12 0.12 91 1014.8
20260831213045 82 291 1.0 16.0 0.12 0.12 0.12 86 1014.9
20260831211554 92 24 6.0 17.0 0.00 0.00 0.00 69 1015.1
20260831210048 94 78 2.0 6.0 0.00 0.00 0.00 65 1014.6
20260831204606 95 162 4.0 12.0 0.00 0.00 0.00 62 1014.7
20260831203044 96 165 1.0 8.0 0.00 0.00 0.00 59 1015.0
20260831201607 95 9 2.0 7.0 0.00 0.00 0.00 64 1015.2
20260831200049 94 9 1.0 10.0 0.00 0.00 0.00 63 1015.3
20260831194601 95 0 3.0 12.0 0.00 0.00 0.00 63 1015.3
20260831193127 94 101 2.0 10.0 0.00 0.00 0.00 62 1015.6
20260831191552 95 9 2.0 9.0 0.00 0.00 0.00 63 1015.7
20260831190051 94 146 2.0 11.0 0.00 0.00 0.00 64 1015.9
20260831184545 93 149 4.0 13.0 0.00 0.00 0.00 64 1016.0
20260831183100 93 51 1.0 10.0 0.00 0.00 0.00 63 1016.2
20260831181609 93 309 3.0 10.0 0.00 0.00 0.00 65 1016.3
20260831180104 94 9 3.0 11.0 0.00 0.00 0.00 64 1016.5
20260831174550 93 159 3.0 13.0 0.00 0.00 0.00 68 1016.6
20260831173047 91 110 3.0 9.0 0.00 0.00 0.00 68 1016.9
20260831171557 91 9 3.0 12.0 0.00 0.00 0.00 69 1017.1
20260831170047 91 85 2.0 9.0 0.00 0.00 0.00 70 1017.0